Change the Weather History Date:

Friday, August 2, 2013

  Actual Average Record
Temperature  
Mean Temperature 75 °F 75 °F  
Max Temperature 85 °F 85 °F 101 °F (1983)
Min Temperature 65 °F 65 °F 55 °F (1948)
Degree Days  
Heating Degree Days 0 0  
Month to date heating degree days 0 0  
Since 1 June heating degree days 38 21  
Since 1 July heating degree days 6 2  
Cooling Degree Days 10 10  
Month to date cooling degree days 18 20  
Year to date cooling degree days 567 583  
Since 1 June cooling degree days 491 529  
Growing Degree Days 26 (Base 50)    
Moisture  
Dew Point 63 °F    
Average Humidity 68    
Maximum Humidity 84    
Minimum Humidity 51    
Precipitation  
Precipitation 0.00 in 0.14 in 2.86 in (1970)
Month to date precipitation 0.00 0.27  
Sea Level Pressure  
Sea Level Pressure 29.92 in    
Wind  
Wind Speed 5 mph (NNW)    
Max Wind Speed 16 mph    
Max Gust Speed 24 mph    
Visibility 10 miles    
Events      
T = Trace of Precipitation, MM = Missing Value Source: NWS Daily Summary

Daily Weather History Graph

Daily Weather History Graph

Search for Another Location

Airport or City:

Trip Planner

Search our weather history database for the weather conditions in past years. The results will help you decide how hot, cold, wet, or windy it might be!

Date:

Astronomy

Aug. 02, 2013 Rise Set
Actual Time 6:13 AM CDT 8:29 PM CDT
Civil Twilight 5:43 AM CDT 8:59 PM CDT
Nautical Twilight 5:05 AM CDT 9:37 PM CDT
Astronomical Twilight 4:23 AM CDT 10:18 PM CDT
Moon 2:35 AM CDT 5:27 PM CDT
Length of Visible Light 15h 16m
Length of Day
14h 15m
Waning Crescent, 15% of the Moon is Illuminated
Aug 2
Waning Crescent
Aug 6
New
Aug 14
First Quarter
Aug 20
Full
Aug 28
Last Quarter

Hourly Weather History & Observations

Time (CDT) Temp. Heat Index Dew Point Humidity Pressure Visibility Wind Dir Wind Speed Gust Speed Precip Events Conditions
12:53 AM 73.9 °F - 64.9 °F 73% 29.91 in 10.0 mi SSW 8.1 mph - N/A   Clear
1:53 AM 73.9 °F - 64.9 °F 73% 29.89 in 10.0 mi SSW 9.2 mph - N/A   Clear
2:53 AM 73.0 °F - 63.0 °F 71% 29.89 in 10.0 mi SW 4.6 mph - N/A   Clear
3:53 AM 70.0 °F - 64.0 °F 81% 29.94 in 10.0 mi West 3.5 mph - N/A   Clear
4:53 AM 69.1 °F - 63.0 °F 81% 29.91 in 10.0 mi SW 3.5 mph - N/A   Clear
5:53 AM 69.1 °F - 62.1 °F 78% 29.90 in 10.0 mi SSW 6.9 mph - N/A   Clear
6:53 AM 69.1 °F - 60.1 °F 73% 29.92 in 10.0 mi SSW 6.9 mph - N/A   Clear
7:53 AM 70.0 °F - 61.0 °F 73% 29.92 in 10.0 mi Calm Calm - N/A   Mostly Cloudy
8:53 AM 72.0 °F - 62.1 °F 71% 29.90 in 10.0 mi North 5.8 mph - N/A   Clear
9:53 AM 77.0 °F - 64.0 °F 64% 29.92 in 10.0 mi NE 8.1 mph - N/A   Clear
10:53 AM 79.0 °F - 64.0 °F 60% 29.93 in 10.0 mi Calm Calm - N/A   Scattered Clouds
11:53 AM 78.1 °F - 64.0 °F 62% 29.93 in 10.0 mi Calm Calm - N/A   Partly Cloudy
12:53 PM 82.0 °F 83.4 °F 64.0 °F 54% 29.91 in 10.0 mi Calm Calm - N/A   Clear
1:53 PM 82.0 °F 83.4 °F 64.0 °F 54% 29.90 in 10.0 mi West 4.6 mph - N/A   Partly Cloudy
2:53 PM 84.0 °F 85.8 °F 64.9 °F 53% 29.88 in 10.0 mi Variable 3.5 mph - N/A   Clear
3:53 PM 84.0 °F 85.8 °F 64.9 °F 53% 29.88 in 10.0 mi SW 4.6 mph - N/A   Partly Cloudy
4:53 PM 82.9 °F 84.4 °F 64.0 °F 53% 29.88 in 10.0 mi Calm Calm - N/A   Mostly Cloudy
5:53 PM 84.9 °F 87.1 °F 66.0 °F 53% 29.89 in 10.0 mi NE 3.5 mph - N/A   Mostly Cloudy
6:53 PM 79.0 °F - 66.9 °F 66% 29.91 in 10.0 mi NE 12.7 mph 24.2 mph N/A   Scattered Clouds
7:53 PM 78.1 °F - 66.9 °F 68% 29.89 in 10.0 mi NE 5.8 mph - N/A   Clear
8:53 PM 73.0 °F - 66.0 °F 79% 29.93 in 10.0 mi NNE 8.1 mph - N/A   Clear
9:53 PM 72.0 °F - 62.1 °F 71% 29.96 in 10.0 mi NNE 10.4 mph - N/A   Scattered Clouds
10:53 PM 68.0 °F - 59.0 °F 73% 29.98 in 10.0 mi NE 10.4 mph - N/A   Clear
11:53 PM 66.0 °F - 57.0 °F 73% 29.99 in 10.0 mi NE 9.2 mph - N/A   Clear